BREEZE-M R/B, 40365

Orbit data source: Space-Track

BREEZE-M R/B, 40365 is space debris in HEO originally from a launch on Sat, 27 Dec 2014 UTC launched from the Tyuratam Missile And Space Complex (TTMTR). Debris objects in space refer to the collection of defunct objects orbiting the Earth. Examples of debris include non-operational satellites, rocket bodies, and fragments generated from explosions, collisions, or faulty payload assembly.

Loading next visibility...
Identifier
40365, 2014-089B
Orbit
HEO
Country
Flag of CISCIS
Related business
Manufacturer
Khrunichev
Mission
Spacecraft
Bus & Motor
BRIZ, Unknown motor
Mass
~1,600 kg wet, 1,600 kg dry
Launch date (UTC)
2014-12-27 (11 years ago)
Launch vehicle
Unknown
Launch site
Tyuratam Missile And Space Complex (TTMTR)
Object type
Payload
Rocket body
Debris
Shape & HBR
Cyl, 2.0 m
Radar Cross Section
14.451 m², Large (>1 m²)

Expand to show TLE details & history
Last TLE update: 1 week ago

TLE from 1 week ago
0 BREEZE-M R/B
1 40365U 14089B   25249.82687153 -.00000042  00000-0  00000-0 0  9999
2 40365  24.0258  25.0457 6069349 256.1660  33.3376  2.19524374 85608
Epoch: 2025-09-06T19:50Z
TLE epoch observation values (Epoch: 2025-09-06T19:50:41.7Z)
Latitude
0.00001°
Longitude
101.19889°
Altitude
12,098.811 km
Speed
5.216 km/s
True Right ascension
01h 40m 06s
True Declination
0° 00' 00"
Sunlit
Object was in daylight at epoch
Visualization orbit readout
Latitude
Unknown
Longitude
Unknown
Altitude
Unknown
Speed
Unknown
Apparent Right ascension
Unknown
Apparent Declination
Unknown
Sunlit
N/A
Visualization observer readout
Local Sidereal Time
12:47:39
Azimuth
Unknown
Elevation
Unknown
Doppler factor
Unknown
Orbital elements
Apogee altitude
33,812.449 km
Perigee altitude
3,452.701 km
Semi-major axis
25,010.712 km
Eccentricity
0.60693
Inclination
24.0258°
RAAN
25.0457°
Arg. of periapsis
256.166°
True anomaly
104.14352°
Mean anomaly
33.3376°
Eccentric anomaly
64.80376°
Mean motion
0.54872 °/min
Orbital period
656.07 mins
BSTAR
0
Loading maneuver chart data...
Computing Atmospheric mass density...
Loading historical data...
Loading historical data...
Loading historical data...
Loading historical data...
Loading historical data...
Loading historical data...
Loading historical data...
Other satellites on launch #89 in the year 2014 (2014-12-27 UTC)

Documentation

Showing up to 5 results
|